DLH242 EDDS-LGIR

Flight info

Callsign DLH242
Flight time N/A
Altitude 35000
Route ABTAL4B ABTAL L173 RIXED Y161 MAH L173 OTT M867 VAVOR DCT RADIZ DCT ZARVE/N0447F370 DCT TUPUS DCT ELTIB DCT RETRA DCT PINDO UL607 NETIS/N0406F230 L607 GIVIS T514 XAVIS
Aircraft A320/M-SDE3FGHIRWY/LB1

Departure

Time 2026-05-07 06:51
Airport Stuttgart Airport (EDDS)

Arrival

Time N/A
Airport Heraklion International Nikos Kazantzakis Airport (LGIR)
Time Latitude Longitude Altitude Speed Heading
2026-05-07 06:37 48.68858 9.19294 1289 ft 0 kts 344°
2026-05-07 06:45 48.68852 9.19297 1287 ft 3 kts 344°
2026-05-07 06:45 48.68835 9.19304 1288 ft 3 kts 344°
2026-05-07 06:46 48.68819 9.19311 1285 ft 3 kts 344°
2026-05-07 06:46 48.68802 9.19310 1285 ft 2 kts 56°
2026-05-07 06:46 48.68799 9.19304 1285 ft 0 kts 69°
2026-05-07 06:46 48.68812 9.19343 1289 ft 12 kts 66°
2026-05-07 06:47 48.68843 9.19517 1285 ft 19 kts 77°
2026-05-07 06:47 48.68874 9.19706 1286 ft 16 kts 78°
2026-05-07 06:47 48.68878 9.19860 1285 ft 14 kts 132°
2026-05-07 06:47 48.68803 9.19928 1288 ft 12 kts 159°
2026-05-07 06:48 48.68731 9.19961 1285 ft 10 kts 165°
2026-05-07 06:48 48.68675 9.19983 1287 ft 7 kts 164°
2026-05-07 06:48 48.68632 9.20004 1286 ft 6 kts 162°
2026-05-07 06:48 48.68594 9.20028 1285 ft 5 kts 146°
2026-05-07 06:49 48.68591 9.20103 1286 ft 14 kts 77°
2026-05-07 06:49 48.68593 9.20116 1287 ft 0 kts 74°
2026-05-07 06:50 48.68665 9.20495 1289 ft 75 kts 74°
2026-05-07 06:51 48.68867 9.21582 1288 ft 136 kts 74°
2026-05-07 06:51 48.69177 9.23193 1380 ft 174 kts 71°
2026-05-07 06:51 48.69558 9.24896 2040 ft 174 kts 73°
2026-05-07 06:51 48.69895 9.26681 2678 ft 180 kts 75°
2026-05-07 06:52 48.70233 9.28595 2987 ft 198 kts 75°
2026-05-07 06:52 48.70613 9.30725 3205 ft 222 kts 75°
2026-05-07 06:52 48.71043 9.33102 3435 ft 246 kts 75°
2026-05-07 06:52 48.71528 9.35716 3771 ft 268 kts 74°
2026-05-07 06:53 48.72048 9.38481 4411 ft 277 kts 74°
2026-05-07 06:53 48.72586 9.41314 5157 ft 283 kts 73°
2026-05-07 06:53 48.73142 9.44206 5880 ft 289 kts 73°
2026-05-07 06:53 48.73714 9.47168 6583 ft 296 kts 72°
2026-05-07 06:54 48.74548 9.50039 7306 ft 300 kts 56°
2026-05-07 06:54 48.75814 9.52548 8039 ft 301 kts 47°
2026-05-07 06:54 48.77159 9.54994 8758 ft 304 kts 47°
2026-05-07 06:54 48.78519 9.57471 9477 ft 307 kts 47°
2026-05-07 06:55 48.79890 9.59976 10181 ft 311 kts 49°
2026-05-07 06:55 48.81324 9.62600 10430 ft 334 kts 49°
2026-05-07 06:55 48.82858 9.65408 10595 ft 357 kts 49°
2026-05-07 06:55 48.84458 9.68347 10957 ft 371 kts 50°
2026-05-07 06:56 48.86111 9.71395 11589 ft 376 kts 50°
2026-05-07 06:56 48.87779 9.74479 12287 ft 379 kts 51°
2026-05-07 06:56 48.89460 9.77592 12973 ft 381 kts 51°
2026-05-07 06:56 48.91144 9.80709 13631 ft 383 kts 51°
2026-05-07 06:57 48.92808 9.83888 14250 ft 387 kts 57°
2026-05-07 06:57 48.93967 9.87582 14845 ft 388 kts 75°
2026-05-07 06:57 48.94317 9.91641 15426 ft 389 kts 94°
2026-05-07 06:57 48.93810 9.95659 15997 ft 389 kts 112°
2026-05-07 06:58 48.92501 9.99235 16532 ft 388 kts 131°
2026-05-07 06:58 48.90683 10.02279 17091 ft 390 kts 135°
2026-05-07 06:58 48.88818 10.05295 17670 ft 393 kts 135°
2026-05-07 06:58 48.87125 10.08592 18206 ft 398 kts 124°
2026-05-07 06:59 48.85858 10.12304 18703 ft 404 kts 113°
2026-05-07 06:59 48.85046 10.16418 19253 ft 409 kts 102°
2026-05-07 06:59 48.84662 10.20715 19758 ft 412 kts 98°
2026-05-07 06:59 48.84322 10.25049 20253 ft 415 kts 98°
2026-05-07 07:00 48.83971 10.29412 20738 ft 417 kts 98°
2026-05-07 07:00 48.83611 10.33799 21206 ft 420 kts 100°
2026-05-07 07:00 48.82967 10.38119 21644 ft 420 kts 110°
2026-05-07 07:00 48.81842 10.42199 22069 ft 419 kts 120°
2026-05-07 07:01 48.80275 10.45915 22480 ft 418 kts 130°
2026-05-07 07:01 48.78343 10.49216 22893 ft 419 kts 136°
2026-05-07 07:01 48.76333 10.52421 23290 ft 420 kts 136°
2026-05-07 07:01 48.74311 10.55652 23688 ft 423 kts 135°
2026-05-07 07:02 48.72307 10.58855 24090 ft 424 kts 136°
2026-05-07 07:02 48.70272 10.62101 24464 ft 426 kts 136°
2026-05-07 07:02 48.68229 10.65358 24832 ft 428 kts 136°
2026-05-07 07:02 48.66176 10.68631 25199 ft 429 kts 136°
2026-05-07 07:03 48.64118 10.71912 25548 ft 431 kts 136°
2026-05-07 07:03 48.62051 10.75201 25891 ft 432 kts 136°
2026-05-07 07:03 48.59970 10.78502 26219 ft 434 kts 137°
2026-05-07 07:03 48.57882 10.81812 26544 ft 435 kts 137°
2026-05-07 07:04 48.55795 10.85134 26847 ft 437 kts 137°
2026-05-07 07:04 48.53706 10.88471 27148 ft 438 kts 137°
2026-05-07 07:04 48.51611 10.91819 27437 ft 439 kts 137°
2026-05-07 07:04 48.49510 10.95171 27713 ft 441 kts 137°
2026-05-07 07:05 48.47401 10.98524 27979 ft 442 kts 138°
2026-05-07 07:05 48.45273 11.01872 28257 ft 443 kts 138°
2026-05-07 07:05 48.43132 11.05210 28505 ft 443 kts 139°
2026-05-07 07:05 48.40978 11.08548 28758 ft 444 kts 139°
2026-05-07 07:06 48.38823 11.11881 28994 ft 445 kts 139°
2026-05-07 07:06 48.36672 11.15208 29328 ft 443 kts 139°
2026-05-07 07:06 48.34528 11.18529 29652 ft 441 kts 140°
2026-05-07 07:06 48.32396 11.21831 29979 ft 440 kts 140°
2026-05-07 07:07 48.30271 11.25123 30294 ft 438 kts 140°
2026-05-07 07:07 48.28258 11.28572 30588 ft 443 kts 132°
2026-05-07 07:07 48.26615 11.32525 30856 ft 450 kts 123°